TimeMDT,TemperatureF,Dew PointF,Humidity,Sea Level PressureIn,VisibilityMPH,Wind Direction,Wind SpeedMPH,Gust SpeedMPH,PrecipitationIn,Events,Conditions,WindDirDegrees,DateUTC
5:00 AM,24.8,24.8,100,29.87,1.0,ESE,10.4,-,N/A,,Light Freezing Drizzle,120,2013-04-06 11:00:00
6:00 AM,25,25,99,29.88,1,ESE,9.2,,,Rain,Light Freezing Drizzle,110,2013-04-06 12:00:00
6:00 AM,24.8,24.8,100,29.88,1.0,ESE,9.2,-,N/A,,Light Freezing Drizzle,110,2013-04-06 12:00:00
7:00 AM,24.8,24.8,100,29.89,0.8,SE,8.1,-,N/A,,Light Freezing Drizzle,140,2013-04-06 13:00:00
7:14 AM,24.8,24.8,100,29.89,0.5,ESE,8.1,-,N/A,Fog,Light Freezing Drizzle,120,2013-04-06 13:14:00
8:00 AM,24.8,24.8,100,29.90,0.5,East,9.2,-,N/A,Fog,Light Freezing Drizzle,100,2013-04-06 14:00:00
8:04 AM,24.8,24.8,100,29.90,0.2,East,10.4,-,N/A,Fog,Light Freezing Drizzle,100,2013-04-06 14:04:00
9:00 AM,24.8,24.8,100,29.90,0.2,SE,8.1,-,N/A,Fog,Light Freezing Drizzle,140,2013-04-06 15:00:00
9:44 AM,24.8,24.8,100,29.90,0.1,SE,11.5,-,N/A,Fog,Light Freezing Drizzle,140,2013-04-06 15:44:00
10:00 AM,24.8,24.8,100,29.89,0.1,SE,10.4,-,N/A,Fog,Light Freezing Drizzle,130,2013-04-06 16:00:00
10:08 AM,24.8,24.8,100,29.89,0.2,SE,9.2,-,N/A,Fog-Snow,Light Snow Grains,130,2013-04-06 16:08:00
11:00 AM,24.8,24.8,100,29.90,0.2,SE,9.2,-,N/A,Fog-Snow,Light Snow Grains,130,2013-04-06 17:00:00
12:00 PM,27,26,95,29.89,0,ESE,11.5,,,Snow,Snow Grains,120,2013-04-06 18:00:00
12:00 PM,26.6,26.6,100,29.89,0.2,ESE,10.4,-,N/A,Fog-Snow,Light Snow Grains,120,2013-04-06 18:00:00
1:00 PM,26.6,26.6,100,29.88,0.4,SE,9.2,-,N/A,Fog-Snow,Light Snow Grains,140,2013-04-06 19:00:00
1:27 PM,26.6,26.6,100,29.87,0.4,ESE,10.4,-,N/A,Fog,Light Freezing Fog,120,2013-04-06 19:27:00
2:00 PM,26.6,26.6,100,29.87,0.2,SE,9.2,-,N/A,Fog,Light Freezing Fog,140,2013-04-06 20:00:00
3:00 PM,26.6,26.6,100,29.86,0.4,SE,11.5,-,N/A,Fog,Light Freezing Fog,130,2013-04-06 21:00:00
4:00 PM,26.6,26.6,100,29.85,0.4,SE,11.5,-,N/A,Fog,Light Freezing Fog,140,2013-04-06 22:00:00
5:00 PM,28.4,26.6,93,29.85,0.5,SE,12.7,-,N/A,Fog,Light Freezing Fog,130,2013-04-06 23:00:00
5:32 PM,28.4,26.6,93,29.84,0.6,East,11.5,-,N/A,,Overcast,100,2013-04-06 23:32:00
5:40 PM,26.6,26.6,100,29.85,2.0,ESE,10.4,-,N/A,,Overcast,110,2013-04-06 23:40:00
6:00 PM,28,28,97,29.86,2,ESE,11.5,,,,Mist,120,2013-04-07 00:00:00
6:00 PM,28.4,28.4,100,29.86,2.0,ESE,10.4,-,N/A,,Overcast,120,2013-04-07 00:00:00
6:33 PM,28.4,28.4,100,29.86,1.8,ESE,9.2,-,N/A,Snow,Light Freezing Drizzle,120,2013-04-07 00:33:00
7:00 PM,28.4,28.4,100,29.85,2.2,ESE,10.4,-,N/A,Snow,Light Freezing Drizzle,110,2013-04-07 01:00:00
8:00 PM,28.4,28.4,100,29.85,2.0,ESE,8.1,-,N/A,Snow,Light Freezing Drizzle,110,2013-04-07 02:00:00
9:00 PM,28.4,28.4,100,29.84,2.2,SE,6.9,-,N/A,Snow,Light Freezing Drizzle,130,2013-04-07 03:00:00